This demonstration page uses our WeatherBlox Daily Observations layout. Learn more.

Left ArrowRight Arrow

41.86663, -103.66717

Hourly Observations for March 24, 2020

Temp ( °F °C ) Dew Point ( °F °C ) Humidity (%) Winds ( mph kmh ) Pressure ( in mb ) Visibility ( mi km ) Precip ( " mm )
12:53 am 00:53 Clear 35 1.7 29 -1.7 78 78 NNW 7 11 29.82 1010 10 16 N/A
1:53 am 01:53 Clear 36 2.2 29 -1.7 76 76 NW 9 15 29.81 1010 10 16 N/A
2:53 am 02:53 Clear 34 1.1 28 -2.2 79 79 NNW 7 11 29.81 1009 10 16 N/A
3:53 am 03:53 Clear 33 0.6 27 -2.8 78 78 NNW 5 7 29.81 1010 10 16 N/A
4:53 am 04:53 Clear 33 0.6 28 -2.2 82 82 NNW 5 7 29.82 1010 10 16 N/A
5:53 am 05:53 Clear 33 0.6 28 -2.2 82 82 N N/A 29.83 1010 10 16 N/A
6:53 am 06:53 Sunny 30 -1.1 26 -3.3 85 85 NW 5 7 29.87 1011 10 16 N/A
7:53 am 07:53 Sunny 39 3.9 31 -0.6 73 73 WNW 3 6 29.86 1011 10 16 N/A
8:53 am 08:53 Sunny 50 10 34 1.1 54 54 W 14 22 29.85 1011 10 16 N/A
9:53 am 09:53 Sunny 55 12.8 33 0.6 44 44 W 20 31 29.85 1011 10 16 N/A
10:53 am 10:53 Sunny 60 15.6 29 -1.7 31 31 WNW 24 39 29.84 1010 10 16 N/A
11:53 am 11:53 Sunny 63 17.2 28 -2.2 27 27 W 29 46 29.81 1009 10 16 N/A
12:53 pm 12:53 Sunny 65 18.3 27 -2.8 24 24 WNW 25 41 29.80 1009 10 16 N/A
1:53 pm 13:53 Mostly Sunny 66 18.9 27 -2.8 23 23 WNW 30 48 29.79 1009 10 16 N/A
2:53 pm 14:53 Mostly Sunny 64 17.8 26 -3.3 24 24 W 22 35 29.79 1009 10 16 N/A
3:53 pm 15:53 Partly Cloudy 65 18.3 24 -4.4 21 21 W 26 43 29.77 1008 10 16 N/A
4:53 pm 16:53 Sunny 64 17.8 26 -3.3 24 24 W 16 26 29.76 1008 10 16 N/A
5:53 pm 17:53 Partly Cloudy 61 16.1 26 -3.3 26 26 WNW 20 31 29.78 1008 10 16 N/A
6:53 pm 18:53 Sunny 58 14.4 26 -3.3 29 29 WNW 10 17 29.79 1009 10 16 N/A
7:53 pm 19:53 Mostly Cloudy 54 12.2 28 -2.2 37 37 SSW 5 7 29.79 1009 10 16 N/A
8:53 pm 20:53 Mostly Cloudy 52 11.1 31 -0.6 45 45 N N/A 29.77 1008 10 16 N/A
9:53 pm 21:53 Mostly Clear 47 8.3 34 1.1 61 61 N 5 7 29.75 1008 10 16 N/A
10:53 pm 22:53 Mostly Cloudy 46 7.8 35 1.7 66 66 SSW 3 6 29.74 1007 10 16 N/A
11:53 pm 23:53 Mostly Cloudy 45 7.2 33 0.6 63 63 E 3 6 29.72 1006 10 16 N/A

Powered by AerisWeather